This is the latest recevied weather packets stored in our database for station/object DB0NLS-15. If no packets are shown the sender has not sent any weather packets the latest 10 day(s).
| Time | Temp. | Humidity | Pressure | Rain* | Wind** | Luminosity | Snow |
|---|---|---|---|---|---|---|---|
| 1777678532 | 7.78° C | 72% | 1013.8 hPa | 0 mm | - | - | - |
| 1777677930 | 7.78° C | 72% | 1013.8 hPa | 0 mm | - | - | - |
| 1777677327 | 7.78° C | 72% | 1013.9 hPa | 0 mm | - | - | - |
| 1777676725 | 8.33° C | 72% | 1013.9 hPa | 0 mm | - | - | - |
| 1777676122 | 8.33° C | 71% | 1013.9 hPa | 0 mm | - | - | - |
| 1777675520 | 8.89° C | 70% | 1013.9 hPa | 0 mm | - | - | - |
| 1777674917 | 9.44° C | 68% | 1013.9 hPa | 0 mm | - | - | - |
| 1777674386 | 9.44° C | 68% | 1013.9 hPa | 0 mm | - | - | - |
| 1777673772 | 9.44° C | 68% | 1014.1 hPa | 0 mm | - | - | - |
| 1777673169 | 9.44° C | 67% | 1014 hPa | 0 mm | - | - | - |
| 1777672567 | 10° C | 67% | 1014.1 hPa | 0 mm | - | - | - |
| 1777671964 | 10° C | 68% | 1014 hPa | 0 mm | - | - | - |
| 1777671361 | 10° C | 67% | 1014.1 hPa | 0 mm | - | - | - |
| 1777670759 | 10° C | 67% | 1014.1 hPa | 0 mm | - | - | - |
| 1777670156 | 10.56° C | 66% | 1014.1 hPa | 0 mm | - | - | - |
| 1777669553 | 10.56° C | 66% | 1014 hPa | 0 mm | - | - | - |
| 1777668951 | 11.11° C | 65% | 1014.1 hPa | 0 mm | - | - | - |
| 1777668348 | 11.11° C | 65% | 1014 hPa | 0 mm | - | - | - |
| 1777667746 | 11.11° C | 65% | 1014.1 hPa | 0 mm | - | - | - |
| 1777667143 | 11.67° C | 63% | 1014 hPa | 0 mm | - | - | - |
| 1777666540 | 12.22° C | 63% | 1014.1 hPa | 0 mm | - | - | - |
| 1777665938 | 12.78° C | 61% | 1014.2 hPa | 0 mm | - | - | - |
| 1777665335 | 12.78° C | 60% | 1014.3 hPa | 0 mm | - | - | - |
| 1777664733 | 13.33° C | 59% | 1014.2 hPa | 0 mm | - | - | - |
| 1777664130 | 13.89° C | 58% | 1014.2 hPa | 0 mm | - | - | - |
* Rain latest hour (hover to see other rain measurements)
** Current wind speed in m/s (hover to see current wind gust speed)